Location: Friaudour
(46.0460°N, 1.2873°E)
Time: 09:54:43
(UTC+00:00)

Meteor 1-20 Rocket - Pass Details

Date: 14 July 2020
Orbit: 820 x 891 km, 81.2° (Epoch: 05 August)

Event Time Altitude Azimuth Distance (km) Brightness Sun altitude
Exits shadow 00:58:22 44° 194° (SSW) 1,163 4.4 -21.1°
Maximum altitude 01:00:17 86° 280° (W) 858 4.1 -21.0°
Drops below altitude 10° 01:06:00 10° 10° (N) 2,511 7.8 -20.7°
Sets 01:08:28 0° 11° (N) 3,463 9.0 -20.6°
